Overview Statistics Trail Chart Weather Telemetry Raw packets
 

This is the latest recevied weather packets stored in our database for station/object N4DWK. If no packets are shown the sender has not sent any weather packets the latest 10 day(s).

<< 110 111 112 113 114 115 >>
Time Temp. Humidity Pressure Rain* Wind** Luminosity Snow
1787786406 28.33° C 64% 1015.6 hPa 0 mm - 12 W/m² -
1787786106 28.33° C 64% 1015.5 hPa 0 mm - 14 W/m² -
1787785806 28.33° C 63% 1015.6 hPa 0 mm - 16 W/m² -
1787785506 28.33° C 63% 1015.6 hPa 0 mm - 18 W/m² -
1787785206 28.89° C 63% 1015.8 hPa 0 mm - 19 W/m² -
1787784906 28.89° C 62% 1015.8 hPa 0 mm - 23 W/m² -
1787784606 28.89° C 61% 1015.7 hPa 0 mm - 32 W/m² -
1787784306 28.89° C 62% 1015.8 hPa 0 mm - 40 W/m² -
1787784007 29.44° C 61% 1015.9 hPa 0 mm - 46 W/m² -
1787783707 29.44° C 61% 1015.9 hPa 0 mm - 49 W/m² -
1787783407 29.44° C 60% 1015.9 hPa 0 mm - 42 W/m² -
1787783106 30° C 60% 1016 hPa 0 mm - 42 W/m² -
1787782806 30° C 59% 1016 hPa 0 mm - 39 W/m² -
1787782505 30.56° C 57% 1016.1 hPa 0 mm - 46 W/m² -
1787782206 30.56° C 57% 1016.3 hPa 0 mm - 139 W/m² -
1787781906 31.11° C 58% 1016.1 hPa 0 mm - 76 W/m² -
1787781606 31.11° C 58% 1016.2 hPa 0 mm - 174 W/m² -
1787781306 31.67° C 55% 1016.2 hPa 0 mm - 149 W/m² -
1787781006 31.67° C 56% 1016.2 hPa 0 mm - 123 W/m² -
1787780706 31.67° C 54% 1016.2 hPa 0 mm - 243 W/m² -
1787780405 31.67° C 55% 1016.2 hPa 0 mm - 190 W/m² -
1787780106 31.67° C 54% 1016.3 hPa 0 mm - 262 W/m² -
1787779809 31.67° C 53% 1016.3 hPa 0 mm - 193 W/m² -
1787779505 32.22° C 52% 1016.4 hPa 0 mm - 295 W/m² -
1787779206 32.22° C 52% 1016.4 hPa 0 mm - 290 W/m² -

* Rain latest hour (hover to see other rain measurements)
** Current wind speed in m/s (hover to see current wind gust speed)